Wind_Speed
74 76 76 76 76 74 72 69 67 66 64 63 62 60 58 56 54 53 52 50 49 47 46 45 45 44 43 42 40 39 36 34 32 29 27 25 24 22 20 19 18 15 11 9 7 5 4 4 5 5 6 7 7 8 7 6 6 7 8 6 5 8 10 12 14 16 17 18 19 18 17 17 18 18 18 19 19 19 20 20 22 23 25 26 28 29
73 75 77 78 77 75 72 70 69 68 66 65 63 62 60 58 56 55 53 52 51 48 46 46 45 44 43 43 42 41 38 36 34 33 30 27 26 24 22 21 20 18 15 12 10 8 6 5 5 4 4 5 5 6 7 6 5 5 6 5 3 6 9 10 12 14 16 17 18 18 17 17 18 18 18 18 18 18 19 20 21 22 24 25 27 28
73 74 76 77 77 76 74 72 71 69 68 67 65 64 62 60 59 58 56 54 52 50 47 46 46 45 44 44 43 41 39 37 35 34 31 28 27 26 24 22 21 19 17 15 13 11 8 7 6 4 3 3 3 5 5 5 5 4 5 4 2 2 6 8 9 12 13 15 16 17 17 16 17 18 18 17 17 18 18 19 21 22 23 24 26 27
75 75 75 76 76 77 75 74 73 71 70 68 67 65 64 62 61 60 57 55 54 52 50 49 47 46 46 44 42 41 40 39 37 35 34 32 30 28 25 23 22 19 18 17 15 14 11 9 8 5 3 3 2 3 4 4 4 4 4 4 3 1 2 4 6 9 11 13 14 16 16 16 16 17 17 17 16 17 17 18 20 21 23 24 25 26
76 75 75 76 76 77 76 75 74 73 72 70 68 67 65 64 62 61 59 58 56 54 53 52 49 48 47 45 44 43 42 41 39 37 35 33 32 29 26 25 23 21 19 18 17 16 14 12 9 7 5 4 3 2 2 3 3 4 5 5 4 3 1 0 3 5 8 10 12 13 15 15 15 16 16 16 15 16 17 17 19 20 22 23 24 25
77 76 76 76 76 77 77 76 76 75 73 72 70 68 66 65 63 63 62 60 58 57 56 54 52 51 50 47 45 44 44 42 40 38 35 34 33 30 27 26 25 23 21 19 19 17 15 13 11 9 8 6 4 4 3 2 2 4 5 6 6 6 5 3 2 2 4 7 9 10 12 14 15 15 15 15 15 15 15 16 17 19 21 22 23 24
79 78 77 76 75 76 77 76 76 75 74 74 72 70 68 67 65 65 64 62 60 58 57 56 54 53 51 48 46 45 45 44 41 38 37 35 34 31 29 28 27 25 22 21 20 18 17 15 13 12 11 9 6 5 5 3 3 3 5 7 8 8 8 7 6 5 4 5 6 8 10 12 13 14 14 14 14 13 14 15 16 18 20 21 22 23
81 81 79 77 76 75 76 76 75 75 75 75 74 72 71 69 68 67 65 64 61 59 59 58 56 55 52 50 48 45 44 45 43 40 39 38 35 33 31 29 28 26 24 23 21 20 19 17 15 15 14 12 9 7 6 6 5 4 5 7 8 9 10 10 10 9 7 6 5 5 7 9 11 12 12 13 13 12 12 13 14 16 18 20 21 22
83 83 80 79 77 76 76 76 75 76 75 75 75 75 73 71 69 68 67 64 62 63 62 59 57 57 55 53 52 47 44 45 45 43 41 39 37 35 33 31 29 27 26 24 22 21 20 19 18 17 16 15 12 9 8 8 7 6 6 7 8 9 11 12 12 11 9 7 5 4 5 6 9 11 11 11 12 11 10 11 12 14 16 18 19 20
83 82 81 81 79 78 77 76 76 76 75 75 76 75 73 71 70 69 68 65 65 65 62 61 60 59 57 55 53 51 47 44 45 45 43 40 38 37 35 33 31 29 27 25 23 21 21 20 20 19 19 18 14 12 11 10 9 8 7 8 9 9 11 12 13 12 11 9 7 6 5 5 6 8 10 10 10 10 9 9 10 12 14 16 17 18
83 83 83 82 81 79 78 78 77 77 76 76 76 75 73 71 70 68 68 67 67 66 64 63 62 60 59 57 55 54 51 47 46 45 44 42 40 39 37 35 33 32 30 27 25 24 23 23 22 22 21 19 17 15 13 12 11 10 9 9 10 10 11 12 13 13 12 11 10 8 6 5 4 5 7 8 8 8 8 7 8 10 11 13 15 16
86 84 83 83 83 82 82 80 79 77 77 77 76 75 74 72 70 69 69 68 68 67 66 65 64 62 61 59 57 57 56 53 49 47 46 44 42 41 39 37 35 34 33 31 29 28 27 26 25 24 22 20 19 17 16 14 14 13 12 11 11 11 11 12 13 14 13 13 12 10 8 7 5 4 4 6 7 7 6 6 6 8 9 11 12 14
88 85 83 84 84 85 84 83 81 79 78 78 76 76 75 73 72 70 68 68 68 67 67 66 66 64 62 61 60 59 57 55 52 51 49 47 45 44 42 40 38 36 35 34 32 31 30 29 27 26 24 22 21 20 18 17 16 15 15 13 12 11 12 13 13 14 14 14 13 12 11 10 8 6 4 4 5 5 5 4 5 6 7 8 10 11
90 87 85 85 86 86 86 84 83 81 79 77 76 77 76 74 72 69 67 68 68 66 66 67 67 65 63 63 62 60 59 57 55 54 52 50 48 46 44 42 40 39 38 36 34 34 34 32 30 28 26 24 23 22 21 20 19 18 17 16 14 13 13 13 14 14 15 15 15 14 13 12 10 9 7 4 3 4 4 3 3 4 4 6 7 9
92 90 87 85 86 87 87 86 85 83 81 79 78 77 77 76 73 70 69 68 67 66 66 69 69 66 65 64 63 61 60 58 57 56 54 52 50 48 47 45 43 42 41 39 38 38 37 35 32 30 29 27 26 25 24 22 21 20 19 18 17 16 15 14 15 15 16 17 17 16 15 14 13 11 9 7 5 3 3 3 2 2 3 3 5 7
93 91 88 86 86 87 87 87 87 86 84 82 80 79 78 77 75 73 70 68 68 69 70 71 69 66 65 65 64 63 61 60 58 57 56 54 52 50 49 47 46 45 43 43 42 40 38 37 34 33 31 30 28 28 26 24 23 22 21 20 20 19 17 16 16 17 17 18 18 18 17 16 15 13 11 9 8 5 2 2 2 2 2 2 3 5
95 92 90 89 88 88 88 88 89 89 87 84 82 81 79 77 76 74 71 70 70 71 72 71 68 66 67 67 65 63 62 60 59 58 57 56 54 52 51 50 49 47 46 45 44 42 40 38 36 35 33 32 31 29 28 26 24 23 22 23 23 22 20 19 18 18 19 20 19 19 19 18 17 15 13 12 11 8 5 3 2 2 2 1 2 3
96 93 93 92 90 89 89 89 90 90 88 86 85 83 81 79 78 77 75 73 72 72 73 71 67 66 68 67 64 63 62 61 60 59 58 57 55 54 53 52 51 49 48 47 45 44 42 40 38 36 35 34 32 31 29 27 26 24 24 24 25 24 23 21 20 20 20 21 21 21 20 20 19 17 16 15 13 11 8 6 4 3 3 3 2 2
97 95 94 94 93 91 90 90 91 90 90 89 87 85 83 82 81 79 77 75 74 74 74 70 67 67 68 65 62 62 62 61 60 59 58 57 56 56 55 53 52 51 50 48 47 45 44 43 40 38 36 35 34 32 31 29 28 27 26 26 26 26 25 24 23 22 22 22 23 23 22 21 20 20 19 17 15 13 11 9 7 5 5 4 3 2
99 97 96 95 95 94 93 92 91 90 90 89 88 87 87 85 83 81 79 77 77 77 74 71 70 69 67 64 63 62 62 61 60 59 59 58 57 56 55 54 53 52 51 50 48 47 45 44 41 39 37 36 35 34 33 32 31 30 28 28 28 27 27 27 27 26 24 23 24 24 23 23 22 21 20 19 16 14 13 12 10 7 6 5 4 3
101 99 98 97 96 96 95 94 91 90 90 90 89 89 88 86 85 83 80 78 79 78 76 74 73 70 67 66 65 63 62 61 60 59 59 58 57 57 56 55 54 52 51 50 49 47 46 44 43 41 40 38 37 36 36 36 34 32 30 29 29 29 29 30 29 28 26 25 25 24 24 23 23 22 22 20 18 16 15 14 12 10 8 7 6 5
102 101 99 98 98 97 96 95 93 91 91 90 89 89 88 88 87 85 83 82 81 80 78 77 74 70 69 70 68 66 64 63 61 60 59 59 58 57 56 56 55 54 52 51 49 48 47 45 44 43 41 40 39 38 38 38 36 35 33 32 30 30 31 31 31 31 29 27 26 26 24 24 24 24 23 21 19 18 17 15 13 12 10 8 8 7
102 102 100 99 98 97 97 96 95 94 93 91 90 89 90 90 89 88 87 84 83 82 80 79 76 72 72 72 71 69 67 65 63 61 61 60 59 58 57 56 56 54 53 51 49 49 48 46 44 43 42 41 41 40 39 39 38 37 35 34 32 32 32 32 32 32 31 29 28 27 26 25 25 25 24 22 20 19 18 16 15 14 12 10 10 9
101 101 101 100 99 98 98 98 97 96 95 93 91 90 90 90 90 89 88 86 86 85 83 81 78 76 75 74 73 72 70 67 66 64 63 62 61 60 59 58 57 55 54 52 50 49 48 47 45 44 43 43 43 41 40 40 38 38 37 36 35 34 33 32 32 32 33 32 30 29 28 27 26 26 25 23 21 20 18 17 17 15 13 13 12 11
99 100 100 100 100 100 99 98 98 97 96 95 93 92 90 90 90 90 90 89 89 87 86 85 82 78 77 76 75 75 73 70 69 66 65 64 63 62 61 60 58 57 55 53 51 51 50 48 46 45 44 44 43 41 41 41 40 39 39 39 38 36 34 33 33 34 34 33 31 30 29 29 28 27 26 24 22 21 20 19 18 17 15 15 14 13
99 99 99 100 101 101 100 99 98 97 97 96 95 94 92 91 90 91 91 91 91 89 89 88 83 80 79 78 77 77 76 74 72 69 67 65 65 64 63 62 60 58 57 55 53 52 51 49 48 46 45 44 43 42 41 41 41 41 41 41 41 39 37 35 34 35 35 34 33 31 31 30 29 29 28 25 23 22 21 20 20 19 17 17 16 15
99 99 99 99 100 101 100 99 98 98 98 97 97 96 95 93 92 92 92 92 91 91 91 89 84 82 82 81 80 79 79 77 75 73 70 68 67 66 65 64 62 60 59 57 55 54 52 51 49 48 47 45 45 45 44 43 43 44 44 43 43 41 40 38 37 37 37 36 34 33 32 31 31 30 28 27 25 24 23 22 21 21 19 19 18 17
100 100 99 99 99 100 100 100 100 100 99 98 98 97 97 96 95 94 93 92 91 92 92 89 86 86 86 84 82 82 81 80 78 76 73 71 69 68 67 66 64 62 61 59 57 56 54 52 51 50 48 47 47 47 47 46 45 45 44 44 44 43 42 40 39 38 38 38 37 36 34 33 32 30 29 28 27 26 26 24 23 22 21 20 20 19
101 101 101 100 100 100 100 101 102 102 101 100 100 99 98 97 97 96 95 93 92 93 91 89 88 89 88 87 86 84 84 83 81 79 77 74 72 71 70 68 67 65 63 61 60 58 56 54 53 51 50 49 48 48 48 47 47 45 43 42 43 44 43 42 41 40 40 39 39 39 37 35 33 31 30 29 28 28 28 27 25 23 22 22 21 20
100 101 102 102 102 101 101 102 103 103 103 102 101 100 100 99 98 98 97 96 95 93 91 90 90 91 90 90 89 87 86 85 84 83 81 78 76 74 73 71 70 68 66 64 62 60 59 57 55 53 52 51 49 49 48 48 48 46 44 41 42 43 44 43 43 42 41 41 41 41 40 38 36 34 32 30 29 29 29 29 27 26 25 24 23 22
99 101 102 103 103 103 102 102 103 104 104 104 104 103 102 101 100 99 99 98 97 95 93 92 92 91 91 91 91 90 89 88 87 86 84 82 80 77 76 74 73 71 69 67 65 63 62 60 58 56 54 52 51 49 49 48 48 48 45 42 42 43 43 44 45 45 44 43 43 42 40 40 39 36 34 32 31 30 30 30 30 29 28 26 25 25
96 99 101 102 103 104 104 103 103 103 104 105 105 105 104 103 102 101 100 100 99 97 96 96 94 93 91 90 91 91 91 90 90 89 87 86 84 81 80 78 77 75 73 71 69 67 65 63 61 59 57 55 53 51 50 49 49 49 48 46 45 45 44 44 46 47 47 46 45 43 41 41 40 39 37 35 33 32 31 31 31 32 31 30 28 27
93 97 99 101 103 104 104 104 104 104 105 105 105 106 106 105 104 103 103 102 101 100 99 99 97 94 92 92 92 91 91 91 91 91 90 89 87 85 83 82 80 79 77 75 73 70 68 66 64 62 60 57 55 53 52 51 50 50 49 48 47 45 44 44 46 47 49 48 47 46 44 42 41 40 38 36 35 33 31 31 32 34 35 34 32 30
89 93 97 100 102 103 104 105 105 106 106 105 105 106 107 107 107 106 104 104 103 102 102 100 98 96 95 95 93 92 91 91 91 92 92 91 90 88 86 85 83 82 81 79 77 74 72 70 68 65 63 61 58 56 54 53 52 51 50 50 49 47 46 45 45 46 48 49 48 48 46 44 42 41 40 38 36 34 32 32 33 35 36 36 35 34
84 88 92 96 99 102 104 105 106 107 107 106 105 105 106 107 108 108 107 106 105 104 103 102 100 99 99 98 95 94 93 92 92 92 92 93 92 91 89 87 86 85 84 83 80 78 76 74 72 69 67 64 62 60 57 56 54 53 52 51 50 49 48 47 45 46 47 48 49 49 48 47 46 44 43 40 38 36 34 33 34 35 36 36 36 36
80 84 88 92 95 99 102 104 106 107 107 107 106 106 106 107 108 109 109 108 107 106 105 104 102 101 101 100 99 97 95 94 93 93 92 92 93 92 91 89 88 87 87 86 84 82 80 78 76 73 71 68 66 64 62 60 57 56 54 52 51 50 49 48 47 47 47 47 47 48 49 49 49 47 45 42 40 38 37 35 35 36 36 36 36 36
77 80 83 87 90 94 98 101 104 106 107 108 108 108 107 107 107 108 109 109 109 109 108 107 105 103 103 103 101 100 99 97 96 94 93 92 93 93 92 91 89 88 88 88 87 86 84 82 79 77 75 72 70 68 66 64 61 59 57 55 53 52 50 49 49 48 48 47 47 47 48 50 50 49 46 43 41 40 38 37 36 36 36 36 36 35
75 77 79 82 86 89 93 97 101 103 106 107 108 109 109 109 109 109 109 109 110 111 110 109 108 106 105 104 104 103 102 100 99 97 95 93 93 93 93 93 91 90 89 88 88 88 87 85 83 81 79 76 74 72 70 68 65 63 60 58 56 54 53 52 51 50 49 49 48 46 47 48 50 49 46 43 41 40 39 37 35 34 34 35 34 33
74 75 77 79 82 85 89 92 96 99 103 106 108 109 110 110 111 111 110 109 110 111 112 112 111 110 108 107 106 105 104 103 102 100 96 95 96 95 94 94 93 92 90 90 89 89 89 87 86 84 82 80 78 76 74 71 69 67 64 62 59 57 56 54 53 53 52 51 50 48 46 46 48 48 46 43 42 40 38 36 34 33 32 32 32 31
72 75 76 77 79 82 84 88 91 95 98 102 105 108 110 111 112 113 112 111 111 111 112 112 112 112 111 110 109 108 107 106 105 102 99 99 100 98 96 96 95 94 93 91 90 90 90 89 88 86 85 83 81 79 77 75 73 70 68 65 62 60 59 58 56 55 54 52 51 49 46 44 45 48 48 45 41 38 36 35 34 32 31 30 31 30
69 72 75 77 78 79 81 83 87 90 94 97 101 104 107 110 112 113 113 113 113 113 113 112 112 113 113 112 112 111 110 108 107 105 102 102 102 101 100 99 98 97 96 94 93 92 91 91 90 88 87 86 84 83 81 79 77 74 71 69 66 64 62 61 60 58 55 53 51 50 47 45 47 50 51 48 43 38 37 37 34 32 31 30 30 30
64 68 71 74 77 79 80 82 84 86 89 92 96 99 104 107 110 112 114 114 114 115 115 114 113 113 113 114 114 114 113 112 110 108 106 105 105 104 103 102 101 100 99 98 96 95 93 92 92 91 89 87 86 85 84 83 81 78 75 73 70 67 65 64 63 60 57 55 54 52 50 50 51 52 53 52 49 46 46 46 42 38 35 32 31 31
59 63 67 70 74 77 79 82 83 85 86 88 90 94 98 102 105 109 112 114 115 116 116 116 115 115 114 114 114 115 115 114 113 112 110 109 108 107 106 105 104 103 102 101 99 98 96 94 94 93 91 90 88 87 86 85 84 82 80 77 74 71 69 67 65 62 60 59 57 54 53 53 54 54 54 56 55 51 50 51 50 48 45 40 35 35
54 58 62 66 69 73 76 79 82 84 86 86 87 90 93 97 100 104 108 111 113 116 117 118 117 117 117 116 116 115 116 116 116 115 114 113 112 111 109 108 107 106 105 104 103 101 99 98 96 95 94 92 91 89 88 87 86 85 83 81 78 76 73 70 68 65 63 63 60 57 55 56 57 57 56 58 58 55 52 53 53 51 49 46 43 40
49 53 57 61 65 69 72 75 78 82 84 86 87 89 91 93 96 99 102 106 109 112 115 117 119 119 119 118 118 117 117 117 117 117 117 116 116 114 113 111 110 109 108 107 106 104 103 101 99 98 97 95 93 92 91 89 88 87 87 85 82 80 77 74 71 69 67 65 64 61 59 58 59 59 58 59 60 58 56 55 54 52 50 48 45 43
45 48 52 56 60 64 68 71 74 77 80 83 85 87 90 91 93 95 98 100 104 107 111 114 117 119 120 121 121 120 120 119 119 118 118 118 118 117 116 115 113 112 111 110 109 108 106 105 103 101 99 98 96 95 93 92 90 89 89 88 86 83 81 78 75 72 70 68 67 65 62 61 60 59 59 59 61 60 58 55 54 54 52 48 45 42
43 46 48 52 56 59 63 67 70 73 76 79 81 84 87 89 91 93 94 96 98 102 105 108 112 116 118 121 122 123 122 122 121 120 119 119 119 119 119 118 117 116 114 113 112 111 109 108 106 104 103 101 99 98 96 94 93 91 91 90 88 86 84 82 79 76 73 71 70 68 66 65 63 61 59 60 62 62 60 57 55 55 52 49 47 44
40 42 46 50 53 55 58 61 65 68 72 75 77 80 83 86 88 91 93 94 95 97 100 103 106 110 114 117 120 122 124 124 123 123 122 121 120 119 120 120 119 119 118 117 115 114 112 111 110 108 107 104 102 101 99 97 95 94 93 92 90 88 87 85 82 80 77 75 73 72 70 70 68 65 63 62 63 64 62 59 58 58 55 53 51 49
40 39 42 46 49 51 55 58 61 63 66 69 73 77 80 82 84 87 90 92 94 95 97 99 102 105 108 112 116 119 121 123 125 125 124 123 122 121 121 120 120 121 121 120 119 117 116 114 113 112 111 109 106 104 102 100 98 97 95 94 93 91 89 87 85 83 80 78 76 75 74 73 71 69 67 66 65 66 65 63 62 61 60 58 57 54
40 39 40 42 44 47 52 56 56 57 60 64 68 72 74 76 79 82 85 88 90 93 95 97 99 101 104 107 110 113 116 119 122 124 125 126 125 124 123 122 122 121 122 122 122 121 119 118 116 115 114 113 111 108 106 104 102 100 98 97 95 94 92 89 88 86 84 81 79 78 77 76 75 72 70 69 68 68 68 67 65 64 63 62 62 60
42 42 41 42 43 46 50 53 53 55 58 62 65 67 70 72 75 78 81 83 86 88 91 94 96 99 101 103 105 107 110 113 117 120 123 125 126 127 126 125 124 124 123 123 123 123 122 121 120 119 117 117 115 112 110 108 106 104 101 100 98 96 95 92 90 88 86 84 83 81 80 79 78 76 74 72 71 71 71 70 68 67 66 64 64 63
Wind_Direction
215 215 215 216 217 217 216 216 217 218 218 218 219 219 219 219 219 220 220 221 221 220 221 223 225 227 229 230 232 232 232 233 235 237 239 240 239 236 236 239 243 247 250 257 267 284 310 336 350 2 17 27 26 21 19 18 9 1 2 14 66 85 81 79 74 68 62 55 51 50 50 48 49 52 56 57 58 61 64 66 64 63 61 61 60 60
215 215 216 217 217 218 217 217 218 218 218 219 219 220 220 220 221 222 222 222 223 222 222 224 225 227 229 231 232 233 233 234 235 237 238 238 236 236 238 240 243 247 250 255 262 270 281 299 320 340 3 18 25 23 16 10 1 352 355 360 40 89 88 82 74 66 60 54 50 48 47 47 47 50 55 58 59 62 67 69 67 65 64 63 62 61
215 215 216 217 217 218 218 218 219 219 219 219 219 220 220 221 222 223 223 223 224 223 223 224 225 226 228 230 232 233 234 234 235 236 237 235 236 240 243 243 245 248 251 255 260 263 268 279 291 309 334 354 16 22 16 6 351 336 338 343 347 89 96 87 73 63 55 51 48 46 45 46 46 48 53 58 60 64 69 71 70 68 66 65 64 62
215 215 215 216 217 217 218 219 219 219 220 220 220 220 220 221 222 223 224 225 225 225 225 225 225 227 228 229 231 232 233 233 233 233 234 236 240 243 245 246 247 247 250 253 256 260 262 269 276 283 294 304 333 7 14 3 344 325 316 318 310 295 99 86 72 60 50 46 47 45 43 43 45 48 52 57 62 66 70 71 71 70 68 67 66 64
215 215 216 216 217 217 217 218 219 220 220 221 221 221 221 221 223 224 224 225 225 226 227 227 227 227 229 229 230 232 233 234 233 233 234 236 239 241 242 245 246 245 246 249 253 256 260 265 270 269 268 271 284 305 343 354 338 319 306 294 282 269 257 47 53 52 46 43 43 44 42 41 42 46 51 56 62 68 72 73 73 72 70 69 67 66
214 215 216 217 217 217 217 217 219 220 221 221 221 221 221 222 222 223 224 224 225 226 227 228 228 228 229 230 231 233 235 236 236 236 236 237 239 240 240 242 244 244 245 247 251 255 259 263 264 261 259 262 268 277 285 307 313 307 296 284 273 265 257 264 296 356 26 29 31 36 39 39 40 43 50 55 61 69 75 76 75 73 72 70 69 68
213 215 216 217 217 218 218 217 218 219 220 221 221 222 222 222 223 223 224 224 225 226 228 228 229 229 230 230 231 233 235 236 237 237 237 238 238 239 240 241 243 245 245 247 251 254 258 260 259 256 255 257 261 268 271 267 269 278 279 276 270 264 259 259 268 288 320 350 8 26 35 36 37 41 48 54 58 68 75 78 78 75 72 71 70 69
213 214 215 215 216 218 218 218 217 218 219 221 222 222 222 222 223 224 224 224 225 226 228 228 229 230 230 230 230 231 233 234 235 235 236 237 238 238 239 240 242 244 246 247 250 253 256 259 258 255 254 255 256 262 266 260 254 253 260 266 266 263 260 260 265 275 292 314 338 5 24 31 34 37 44 53 57 65 74 78 79 77 74 72 71 69
213 214 214 214 216 216 218 218 217 217 218 219 221 222 222 223 224 224 225 225 225 226 227 228 229 230 230 230 230 230 232 233 233 234 235 236 237 237 237 238 240 241 244 247 247 250 255 259 258 256 254 254 253 258 262 261 259 254 251 258 263 262 258 259 264 271 281 293 306 329 358 21 31 34 40 50 57 63 72 78 78 78 76 73 72 70
214 214 213 214 215 216 218 218 218 217 217 218 220 221 222 223 224 225 226 225 226 227 228 228 229 230 230 230 230 231 231 232 231 232 234 235 235 236 236 236 237 237 239 242 242 244 249 253 255 255 254 255 256 258 262 265 268 263 251 249 257 258 256 257 259 265 272 278 283 300 329 360 21 31 37 46 56 62 71 77 77 77 77 73 72 71
214 214 214 214 215 216 217 218 218 218 217 218 219 220 221 222 223 224 225 225 226 227 228 228 229 229 230 231 231 231 231 232 231 231 233 233 233 234 234 234 234 235 235 235 235 238 241 243 246 249 252 254 258 261 266 271 272 268 255 245 248 253 256 256 257 259 264 268 274 285 299 320 348 17 33 41 51 60 70 77 77 75 74 73 71 69
214 214 214 214 214 215 216 218 218 219 218 218 218 219 220 220 222 223 224 225 226 227 228 228 229 229 230 230 231 231 232 233 233 232 232 232 232 232 232 232 232 233 233 232 231 232 233 235 238 242 245 250 256 261 267 272 273 270 261 248 243 249 255 257 256 256 258 263 269 276 281 288 306 332 8 31 43 53 65 76 79 74 70 70 68 66
213 213 213 214 215 216 216 217 218 219 219 219 219 219 219 219 220 222 223 225 226 227 228 229 229 229 230 231 231 231 233 233 233 233 233 232 232 232 232 232 232 233 234 233 231 230 231 231 233 236 238 242 249 256 262 266 269 268 263 255 245 243 250 254 254 254 254 257 261 265 270 276 284 296 319 3 34 44 53 66 77 78 70 66 65 64
214 213 213 214 215 216 216 217 218 219 220 220 220 220 219 219 219 220 221 223 225 226 228 229 229 229 229 230 231 232 233 234 234 234 234 233 233 234 234 234 233 234 235 234 233 233 233 232 231 232 234 236 240 247 253 257 262 264 263 259 249 241 243 250 253 252 251 251 254 258 262 269 274 281 290 305 354 28 37 45 57 70 71 65 62 63
214 213 213 214 215 216 216 217 218 219 219 220 220 220 220 219 219 219 220 222 223 223 225 227 228 229 229 231 232 232 233 234 234 235 235 235 235 235 235 235 235 234 235 235 234 234 236 236 235 234 233 233 234 238 244 248 253 257 259 258 253 245 240 243 249 251 249 248 250 253 256 261 266 270 277 284 293 333 15 25 25 34 51 60 59 59
214 214 214 214 215 216 216 217 218 218 219 219 219 220 221 220 220 219 220 221 222 223 225 227 228 229 229 231 231 232 233 233 234 235 236 236 236 236 236 236 235 235 235 236 236 237 238 239 238 237 236 236 234 235 237 241 245 250 254 255 253 248 242 239 243 246 247 247 248 248 250 254 259 264 270 274 277 282 313 355 354 350 8 35 47 53
215 214 214 214 215 216 217 217 218 218 219 219 219 220 221 221 221 220 220 220 222 224 226 228 228 228 229 230 231 232 233 234 235 236 236 236 236 236 236 236 236 235 235 236 237 238 238 239 239 239 239 239 238 238 238 240 243 247 250 251 250 248 244 241 240 242 244 245 246 246 246 248 252 258 262 264 268 270 278 299 311 301 303 328 7 34
215 215 215 215 215 216 217 217 218 219 218 218 219 220 221 221 221 221 220 220 222 223 226 227 227 228 230 231 232 233 233 234 235 236 236 236 236 236 236 236 236 235 235 235 236 237 238 238 238 238 239 240 241 241 241 241 243 245 247 247 248 248 246 243 240 240 243 245 246 247 247 247 248 250 253 256 260 264 268 275 283 280 271 277 313 359
215 215 215 215 216 216 217 218 218 219 219 219 219 219 220 221 221 221 221 221 223 224 225 226 225 227 229 230 230 232 232 233 233 234 235 235 236 236 236 236 236 236 235 235 235 236 237 238 237 237 239 241 242 243 242 242 242 243 243 243 244 245 244 242 238 237 240 243 245 247 248 248 246 246 247 249 252 256 260 264 269 274 268 266 277 313
215 215 215 215 216 217 217 218 218 219 220 219 219 219 220 221 221 222 222 222 223 225 225 225 225 225 227 228 228 229 230 231 232 233 234 234 235 236 236 236 236 236 236 236 236 236 237 238 238 237 236 237 240 242 243 242 240 240 241 241 241 240 239 238 236 235 236 239 242 245 246 247 247 246 246 246 247 250 255 258 262 269 272 265 262 271
215 215 215 216 216 217 218 218 219 219 220 220 220 220 221 221 222 222 222 222 224 225 225 225 225 225 226 227 228 228 229 230 230 231 233 234 234 235 236 236 236 236 236 236 236 236 235 236 236 236 235 234 235 237 239 240 239 238 238 238 238 237 236 236 235 235 236 238 241 244 246 247 248 248 247 246 245 246 249 252 255 261 266 264 257 258
215 216 216 216 217 217 218 219 219 219 221 221 220 220 221 222 222 222 222 222 224 225 225 226 226 225 226 227 227 227 227 228 229 229 231 233 233 235 235 236 236 236 236 236 236 235 235 234 234 235 234 234 234 234 236 237 238 237 236 235 235 235 235 235 235 235 236 238 241 243 246 248 249 250 249 248 246 244 245 247 250 254 257 259 254 253
216 216 216 217 217 218 218 219 219 220 221 221 221 221 221 222 222 222 222 222 224 225 225 226 226 225 226 227 228 227 227 227 228 228 229 231 232 233 234 235 235 236 235 235 235 235 234 234 233 233 232 232 232 232 233 235 236 235 234 234 234 234 234 234 235 235 236 237 240 243 244 246 248 250 251 251 248 246 245 246 248 250 252 253 250 248
216 217 217 218 218 218 219 220 220 220 221 222 222 221 222 222 222 223 223 223 224 225 225 226 225 225 226 227 228 229 228 227 228 228 228 230 231 232 233 234 234 235 235 234 233 234 234 233 232 231 231 231 231 231 232 232 233 234 233 232 231 232 232 233 234 234 234 235 238 241 244 245 247 250 251 251 249 247 246 247 248 248 249 250 247 244
217 218 218 218 219 219 220 220 220 221 221 223 223 222 222 222 223 223 223 223 224 224 225 226 225 225 226 227 228 229 229 228 228 228 228 229 230 231 232 233 234 234 234 233 232 233 233 232 231 230 230 231 230 230 230 230 230 231 231 230 229 228 228 229 231 232 233 233 235 238 242 244 246 249 250 250 249 247 246 246 247 246 246 247 245 241
218 218 218 219 220 220 221 221 221 222 222 223 224 224 223 223 223 224 224 224 224 224 225 226 225 225 226 227 228 229 230 229 228 227 227 229 230 231 232 232 233 233 234 233 232 232 232 232 231 229 229 229 228 226 226 227 228 228 228 229 228 227 225 226 227 228 230 231 231 234 237 240 243 245 248 249 249 248 247 246 245 244 243 243 240 238
218 219 219 219 220 221 221 222 222 223 223 223 224 225 224 224 224 224 224 224 224 225 226 226 225 224 226 226 227 229 230 230 229 228 227 227 229 231 231 232 233 233 234 234 233 233 232 232 231 229 228 227 226 225 224 224 226 226 226 227 227 226 224 223 223 224 225 226 228 230 233 236 238 240 243 247 248 248 247 246 245 243 241 239 237 235
218 219 219 220 220 221 221 222 223 223 224 224 225 225 225 225 225 225 225 225 225 225 226 226 225 225 226 226 227 228 230 231 230 230 228 227 228 230 231 231 232 232 233 234 234 233 233 232 231 230 228 226 225 225 224 224 226 227 226 226 227 226 224 223 223 222 221 221 223 226 229 231 233 236 239 242 244 246 246 244 244 242 240 237 234 232
218 219 219 220 220 220 221 222 222 223 224 224 225 226 226 226 226 226 226 226 226 226 226 226 225 226 226 226 227 228 230 231 231 230 230 228 228 229 231 231 232 232 232 233 233 234 233 233 232 231 229 227 225 225 224 223 225 227 227 227 227 226 225 223 223 223 222 220 219 221 224 226 228 230 233 236 239 242 243 243 242 241 239 237 233 230
219 220 220 220 220 220 221 222 222 223 224 224 225 225 226 227 227 227 227 227 227 227 226 226 226 226 226 226 227 227 229 230 231 231 231 229 228 228 230 231 231 232 232 232 232 233 233 233 233 232 231 229 227 225 225 224 224 225 227 227 227 227 225 223 222 223 224 223 221 220 219 220 223 225 227 230 234 236 238 240 240 239 239 237 234 231
220 221 221 221 221 221 221 222 223 223 224 224 225 225 226 227 227 228 228 228 228 227 227 226 226 226 226 226 227 227 228 230 231 232 232 231 229 228 228 230 231 232 232 232 232 232 233 233 234 233 232 231 229 226 225 225 224 223 223 223 224 226 226 224 223 221 222 225 225 223 220 219 220 221 222 225 227 229 232 235 236 236 236 236 235 234
221 221 221 222 222 222 222 223 223 224 224 224 225 225 226 227 228 228 228 228 228 228 227 227 227 226 226 227 227 228 228 229 231 232 232 232 231 230 229 229 230 231 231 232 232 232 232 233 233 233 233 232 230 228 226 225 225 223 221 220 222 224 224 225 225 222 221 222 224 225 224 222 221 221 221 222 223 224 226 228 231 233 234 234 234 234
221 222 222 222 223 223 223 223 224 224 225 225 225 226 226 227 228 228 229 229 229 229 228 228 228 227 227 227 227 228 228 229 230 232 233 233 232 231 230 229 230 230 231 231 231 231 232 232 232 233 233 233 231 229 228 227 226 224 223 222 222 223 223 225 226 225 223 222 221 223 225 224 224 224 224 224 223 223 222 223 227 230 231 232 232 233
222 222 223 223 223 223 224 224 225 225 225 225 226 226 227 227 228 228 229 229 230 229 229 229 229 228 228 227 227 228 228 228 229 231 232 233 233 232 231 230 230 230 231 231 231 231 231 231 232 232 232 233 232 231 229 228 227 226 225 224 223 223 224 226 227 227 227 224 222 221 222 223 224 225 226 226 226 225 224 224 225 227 229 230 231 232
223 223 224 224 224 224 224 225 225 226 226 226 226 227 227 228 228 228 229 229 230 230 230 230 229 229 229 228 228 228 228 228 229 230 231 233 234 233 232 231 230 230 231 231 231 231 231 231 231 231 232 232 232 232 231 229 228 228 227 226 225 225 225 226 227 228 228 227 225 222 221 222 223 224 224 225 226 226 225 225 226 228 229 230 230 230
224 224 224 224 225 225 225 225 226 226 226 227 227 227 228 228 229 229 229 229 230 231 231 230 230 230 230 230 228 228 228 228 229 229 230 232 234 234 233 233 232 231 231 231 232 232 231 231 231 230 231 231 231 232 232 231 229 228 228 227 227 226 226 226 226 227 228 227 227 226 224 222 223 223 223 223 225 226 226 225 226 228 230 231 230 230
224 224 225 225 225 226 226 226 226 227 227 227 227 228 228 229 229 230 230 230 230 231 231 231 231 230 231 230 230 229 229 228 229 229 229 230 232 234 235 234 233 232 231 231 232 232 232 232 231 231 231 231 231 231 231 232 231 229 228 228 227 227 226 226 226 227 228 227 226 226 226 225 224 223 223 224 225 227 227 226 226 228 230 232 232 230
225 225 225 226 226 226 226 227 227 227 227 228 228 228 228 229 229 230 230 230 231 231 231 231 231 231 231 231 231 230 229 229 229 228 229 230 231 233 235 235 234 233 232 232 232 233 233 232 232 231 231 231 231 231 231 232 231 230 229 228 227 227 226 226 227 227 228 227 226 225 225 226 225 224 225 225 227 229 230 230 231 231 232 233 234 233
227 227 227 227 227 227 227 227 227 227 228 228 228 228 229 229 230 230 230 230 231 231 231 232 232 232 232 232 232 232 231 230 229 228 228 229 230 231 233 235 235 234 233 232 232 232 233 233 232 232 231 231 231 232 232 232 232 231 230 228 227 226 226 226 227 227 227 227 227 225 224 224 225 224 224 226 228 230 231 233 234 237 239 240 240 238
228 228 228 228 228 228 228 228 228 228 228 228 228 229 229 229 230 230 230 230 231 231 232 232 232 232 232 232 232 232 232 231 231 229 228 229 230 229 230 233 235 235 234 233 232 232 233 233 233 232 232 231 231 232 232 233 233 232 231 230 228 227 226 226 226 227 228 228 227 226 224 224 224 223 222 223 226 229 233 236 237 238 241 244 245 245
230 229 229 229 229 229 229 229 229 229 229 229 229 229 229 230 230 230 231 231 231 232 232 232 232 232 232 232 232 233 233 232 232 231 229 229 230 229 229 230 233 234 234 233 232 232 232 232 233 233 232 231 231 231 232 232 233 233 232 231 230 228 227 226 226 226 227 227 228 226 223 222 223 223 220 219 219 222 227 233 237 240 244 246 247 247
232 231 230 230 230 230 230 230 230 230 229 229 230 229 230 230 230 231 231 231 231 232 232 232 232 232 232 233 233 233 233 233 232 232 231 230 230 230 229 230 231 232 234 234 233 232 231 232 232 232 232 232 231 231 231 232 232 233 233 233 232 230 228 228 227 226 226 226 226 225 222 220 220 222 220 216 214 216 219 222 224 228 233 240 247 250
233 232 232 231 231 231 230 230 230 230 230 230 230 230 230 230 230 231 231 231 231 232 232 233 233 233 233 233 233 233 233 233 233 232 232 231 231 230 230 229 230 231 232 234 234 233 232 231 232 232 232 232 231 231 231 231 231 232 233 233 233 231 230 229 228 226 225 226 225 224 223 220 219 220 219 216 213 216 219 219 218 219 219 222 232 243
234 233 233 233 232 232 232 231 231 231 231 230 230 231 231 231 231 231 231 231 231 231 232 233 233 233 233 233 233 233 233 233 233 232 232 232 232 231 230 230 229 230 231 232 234 234 233 232 231 232 232 231 231 231 231 230 230 231 232 232 233 232 231 230 228 226 225 226 225 224 222 221 219 219 219 216 214 215 218 219 219 219 217 217 220 227
237 235 234 233 233 233 233 232 232 232 232 231 231 231 232 231 231 231 231 231 231 232 232 233 233 233 233 233 234 234 234 233 233 232 232 232 232 232 231 231 230 230 230 231 232 233 234 233 232 231 232 231 231 231 231 230 230 230 231 231 232 232 232 230 229 227 225 225 226 225 222 220 221 221 220 217 214 215 216 217 217 218 218 218 218 220
240 239 237 235 234 233 233 233 233 233 233 233 232 232 232 233 232 232 232 231 232 232 232 233 233 233 233 233 234 234 234 234 233 233 232 232 232 232 232 232 231 230 230 230 231 232 233 234 233 232 232 232 231 231 230 230 230 230 230 230 231 231 232 231 230 228 226 224 225 226 223 220 220 222 222 218 216 215 216 216 217 218 217 217 219 219
241 239 239 238 236 235 234 234 234 234 234 234 233 233 233 233 234 233 233 232 232 232 232 233 233 233 234 234 234 234 234 234 234 234 233 233 232 232 232 232 232 231 230 230 230 231 231 233 234 233 232 232 232 231 231 230 230 230 230 230 230 230 230 230 230 229 227 225 224 225 225 223 219 220 222 221 218 217 217 215 217 219 217 217 220 219
247 241 239 240 240 239 237 236 235 235 235 234 234 234 233 233 233 234 234 233 233 233 233 233 233 233 234 234 234 234 235 235 235 235 234 234 233 233 233 232 232 232 231 230 230 230 230 231 232 233 233 232 232 232 231 231 230 230 230 230 230 230 229 229 229 229 227 226 224 224 225 226 222 219 221 221 219 218 218 216 217 218 217 217 219 217
254 249 245 243 242 242 241 239 238 237 237 236 236 235 235 234 234 234 234 234 234 233 233 233 233 233 234 234 234 234 235 235 235 235 235 235 234 234 233 233 232 232 232 231 230 230 230 230 231 232 233 233 232 232 232 231 231 230 230 230 230 230 229 228 228 228 227 226 225 224 224 226 225 221 220 221 221 220 220 218 218 218 218 218 217 215
256 254 253 250 247 244 243 242 240 239 239 239 238 238 237 236 236 236 235 235 234 234 234 234 234 234 234 234 234 235 235 235 235 235 235 235 235 234 234 234 233 233 232 232 231 231 230 229 230 230 231 232 232 232 231 232 231 231 230 230 230 230 230 229 228 227 227 226 225 224 223 225 226 224 221 220 221 221 222 221 221 220 220 219 218 217
255 254 252 252 250 248 245 243 240 238 238 238 239 239 238 236 235 236 236 236 235 235 235 235 235 235 235 235 235 235 235 235 235 236 235 235 235 235 234 234 234 233 233 232 232 232 231 230 229 229 230 231 232 231 231 231 231 231 231 230 230 230 230 229 228 227 226 225 225 224 223 223 225 226 224 221 220 220 222 223 224 223 222 221 220 220
Height
10892 10896 10901 10904 10908 10914 10922 10929 10935 10939 10944 10948 10953 10957 10961 10966 10969 10973 10977 10981 10985 10989 10993 10996 10998 11000 11001 11003 11005 11007 11010 11012 11014 11015 11016 11017 11019 11020 11022 11023 11024 11025 11026 11027 11027 11027 11028 11029 11029 11029 11029 11028 11028 11028 11028 11028 11028 11028 11029 11029 11028 11028 11027 11027 11027 11027 11026 11026 11026 11025 11025 11025 11024 11024 11024 11023 11023 11022 11021 11020 11019 11019 11018 11017 11015 11014
10886 10890 10893 10898 10904 10912 10920 10926 10928 10932 10938 10943 10948 10953 10957 10962 10966 10969 10973 10976 10980 10985 10989 10991 10993 10996 10998 10999 11001 11004 11007 11010 11011 11012 11014 11015 11016 11018 11020 11022 11023 11024 11025 11025 11026 11027 11027 11028 11029 11029 11029 11028 11028 11028 11028 11028 11028 11029 11029 11029 11029 11028 11028 11028 11028 11028 11027 11027 11027 11027 11026 11026 11026 11026 11025 11025 11024 11024 11023 11022 11021 11021 11020 11019 11018 11016
10880 10883 10888 10894 10901 10907 10914 10919 10922 10928 10933 10937 10943 10948 10953 10958 10961 10963 10967 10972 10976 10981 10984 10986 10989 10991 10993 10995 10998 11001 11004 11007 11009 11010 11012 11013 11014 11016 11018 11021 11022 11023 11024 11024 11025 11026 11026 11027 11028 11028 11028 11028 11028 11028 11028 11028 11028 11028 11029 11030 11030 11029 11029 11029 11029 11029 11029 11028 11028 11028 11028 11028 11028 11027 11027 11026 11026 11025 11024 11024 11023 11022 11022 11021 11020 11018
10871 10876 10882 10889 10894 10900 10907 10912 10917 10922 10926 10932 10938 10942 10947 10952 10954 10958 10964 10968 10972 10976 10979 10981 10984 10987 10989 10992 10996 10998 11000 11002 11005 11008 11011 11013 11014 11015 11017 11019 11021 11022 11023 11023 11024 11025 11026 11026 11027 11027 11027 11028 11028 11028 11028 11028 11028 11028 11029 11030 11030 11030 11030 11029 11029 11029 11029 11030 11030 11030 11029 11029 11029 11029 11028 11028 11027 11027 11026 11025 11024 11024 11023 11022 11021 11020
10865 10872 10877 10882 10887 10894 10900 10905 10910 10916 10921 10927 10932 10937 10942 10946 10950 10955 10959 10962 10967 10971 10973 10975 10980 10983 10985 10989 10992 10994 10995 10998 11002 11005 11009 11011 11012 11014 11016 11018 11019 11021 11022 11022 11023 11024 11025 11025 11026 11026 11026 11027 11027 11027 11027 11027 11028 11028 11029 11029 11030 11030 11030 11030 11030 11030 11030 11030 11031 11031 11031 11031 11031 11030 11030 11029 11029 11028 11027 11027 11026 11026 11025 11024 11023 11022
10860 10866 10871 10876 10882 10887 10893 10899 10904 10910 10915 10920 10925 10931 10935 10940 10944 10948 10951 10956 10961 10964 10967 10971 10975 10978 10981 10985 10988 10990 10993 10996 10999 11003 11007 11008 11010 11013 11015 11016 11018 11019 11020 11021 11022 11023 11024 11024 11025 11025 11025 11026 11026 11026 11027 11027 11027 11028 11028 11029 11030 11030 11031 11031 11030 11031 11031 11031 11031 11032 11032 11032 11032 11032 11031 11031 11030 11029 11029 11029 11028 11027 11026 11025 11024 11024
10854 10859 10865 10873 10877 10881 10887 10893 10899 10904 10909 10912 10918 10924 10929 10934 10938 10941 10945 10951 10956 10960 10963 10966 10970 10973 10977 10982 10985 10987 10990 10993 10996 11000 11003 11005 11007 11010 11013 11014 11016 11018 11019 11020 11021 11022 11023 11023 11024 11024 11024 11025 11025 11025 11026 11026 11026 11027 11028 11028 11029 11030 11030 11031 11031 11031 11031 11032 11032 11032 11033 11033 11033 11033 11032 11032 11031 11031 11030 11030 11030 11029 11028 11027 11026 11025
10846 10851 10859 10866 10871 10876 10881 10887 10893 10897 10901 10906 10913 10917 10922 10927 10931 10935 10940 10946 10952 10956 10957 10961 10965 10969 10973 10977 10979 10982 10985 10988 10992 10996 10998 11001 11004 11007 11010 11012 11014 11016 11017 11019 11020 11021 11021 11023 11023 11023 11023 11023 11024 11025 11025 11025 11026 11026 11027 11027 11028 11029 11030 11030 11030 11031 11031 11032 11032 11033 11033 11033 11034 11034 11033 11033 11033 11032 11032 11032 11031 11030 11029 11028 11027 11026
10835 10843 10852 10859 10864 10869 10873 10879 10886 10890 10894 10900 10905 10910 10916 10922 10926 10930 10935 10942 10947 10948 10951 10957 10960 10963 10968 10971 10974 10978 10980 10983 10987 10991 10993 10997 11000 11003 11005 11008 11011 11013 11014 11016 11018 11019 11020 11021 11022 11022 11022 11022 11023 11024 11024 11024 11025 11025 11026 11027 11027 11028 11029 11029 11030 11031 11031 11032 11032 11033 11033 11034 11034 11034 11034 11034 11034 11033 11033 11033 11033 11032 11031 11030 11029 11028
10830 10838 10847 10852 10858 10863 10867 10873 10878 10882 10888 10894 10898 10905 10912 10916 10920 10924 10930 10936 10940 10942 10947 10952 10954 10957 10961 10965 10969 10973 10975 10978 10983 10986 10989 10993 10997 10999 11001 11004 11007 11009 11011 11013 11015 11017 11018 11019 11020 11021 11021 11021 11022 11023 11023 11023 11024 11025 11025 11026 11026 11027 11028 11028 11029 11030 11031 11032 11032 11033 11033 11034 11034 11035 11035 11035 11035 11034 11034 11034 11034 11033 11032 11032 11031 11030
10824 10832 10839 10845 10852 10857 10861 10865 10869 10875 10883 10887 10893 10901 10906 10909 10914 10918 10923 10929 10932 10936 10941 10944 10948 10952 10955 10960 10965 10967 10970 10974 10978 10982 10985 10989 10992 10994 10997 11000 11002 11005 11007 11010 11012 11013 11015 11016 11017 11018 11019 11020 11021 11021 11022 11022 11023 11024 11024 11025 11025 11026 11027 11027 11028 11029 11030 11031 11032 11033 11033 11034 11034 11035 11035 11035 11035 11035 11035 11035 11035 11034 11034 11033 11032 11032
10814 10823 10831 10838 10844 10848 10852 10856 10862 10870 10875 10880 10887 10894 10898 10903 10907 10911 10917 10922 10926 10930 10934 10937 10942 10946 10950 10955 10959 10961 10964 10969 10973 10977 10980 10984 10987 10990 10993 10995 10998 11000 11003 11006 11008 11009 11010 11011 11013 11014 11016 11018 11019 11020 11021 11021 11022 11023 11023 11024 11024 11025 11026 11026 11027 11028 11029 11031 11032 11032 11033 11034 11034 11035 11035 11036 11036 11036 11036 11036 11035 11035 11034 11034 11034 11033
10806 10816 10824 10830 10835 10839 10844 10850 10856 10862 10867 10874 10882 10887 10892 10897 10901 10906 10912 10916 10920 10924 10928 10931 10935 10941 10946 10949 10951 10955 10959 10964 10968 10972 10975 10979 10982 10985 10988 10991 10994 10996 10999 11002 11005 11005 11006 11007 11009 11011 11012 11015 11016 11017 11019 11020 11021 11021 11022 11023 11024 11024 11025 11026 11026 11027 11028 11030 11031 11032 11033 11033 11034 11034 11035 11036 11036 11036 11036 11036 11036 11035 11035 11035 11034 11034
10799 10808 10814 10820 10825 10831 10837 10844 10849 10855 10862 10870 10876 10880 10885 10891 10896 10902 10907 10909 10914 10919 10921 10923 10928 10935 10939 10941 10945 10951 10954 10959 10963 10966 10970 10974 10977 10981 10984 10987 10990 10992 10995 10998 11001 11002 11003 11004 11006 11007 11009 11011 11013 11014 11016 11017 11019 11020 11020 11022 11022 11023 11024 11024 11025 11026 11027 11028 11030 11031 11032 11033 11033 11034 11035 11035 11036 11036 11036 11036 11036 11036 11035 11035 11035 11035
10789 10798 10805 10812 10818 10824 10831 10837 10843 10850 10857 10862 10868 10873 10878 10884 10890 10896 10899 10903 10907 10910 10911 10914 10920 10929 10933 10935 10940 10945 10949 10953 10957 10960 10965 10969 10973 10976 10979 10983 10986 10988 10990 10993 10995 10997 10999 11001 11003 11004 11005 11007 11009 11011 11012 11014 11016 11017 11019 11020 11021 11022 11022 11023 11024 11025 11026 11027 11028 11029 11031 11032 11032 11033 11034 11035 11035 11036 11036 11036 11036 11036 11036 11036 11036 11036
10781 10791 10801 10806 10811 10817 10823 10829 10835 10841 10847 10853 10860 10864 10870 10877 10884 10889 10894 10897 10900 10901 10903 10908 10916 10925 10928 10929 10933 10939 10943 10948 10951 10955 10959 10963 10968 10971 10974 10977 10980 10983 10986 10987 10989 10992 10995 10998 10999 11001 11002 11004 11006 11008 11009 11011 11013 11015 11016 11018 11019 11020 11021 11022 11023 11024 11024 11025 11026 11028 11029 11030 11031 11032 11033 11034 11035 11035 11036 11036 11036 11036 11036 11036 11036 11036
10773 10784 10792 10796 10802 10808 10814 10821 10826 10831 10838 10847 10853 10856 10864 10873 10878 10883 10888 10890 10893 10895 10898 10904 10913 10919 10919 10921 10928 10934 10939 10943 10946 10950 10954 10958 10962 10966 10969 10971 10974 10978 10980 10982 10985 10988 10991 10994 10996 10998 11000 11002 11003 11005 11007 11009 11010 11012 11014 11015 11016 11017 11019 11020 11021 11022 11023 11023 11024 11026 11027 11028 11029 11031 11032 11033 11034 11035 11035 11036 11036 11036 11037 11037 11037 11037
10765 10776 10782 10788 10795 10800 10806 10812 10816 10822 10831 10839 10844 10850 10859 10865 10868 10874 10879 10882 10886 10889 10893 10901 10909 10912 10912 10918 10925 10929 10933 10937 10940 10944 10948 10952 10956 10959 10962 10965 10968 10972 10975 10977 10980 10983 10986 10989 10992 10995 10997 10999 11001 11003 11005 11006 11008 11010 11011 11013 11014 11015 11017 11018 11019 11020 11021 11022 11023 11024 11025 11026 11028 11029 11031 11031 11033 11034 11035 11035 11035 11036 11036 11037 11037 11037
10757 10766 10773 10780 10787 10792 10798 10802 10807 10815 10823 10830 10837 10846 10851 10854 10860 10867 10872 10877 10881 10882 10888 10898 10903 10903 10907 10915 10920 10923 10927 10931 10934 10938 10941 10945 10949 10952 10956 10959 10962 10966 10969 10972 10975 10978 10981 10984 10988 10991 10994 10996 10998 11000 11002 11003 11005 11006 11008 11010 11012 11013 11015 11016 11017 11018 11019 11020 11021 11022 11023 11025 11026 11027 11028 11030 11031 11032 11033 11034 11035 11035 11036 11036 11037 11037
10748 10755 10763 10771 10778 10784 10789 10793 10801 10809 10815 10822 10831 10837 10841 10846 10854 10860 10866 10872 10873 10875 10884 10891 10893 10896 10903 10910 10914 10916 10920 10924 10928 10931 10934 10938 10942 10945 10949 10953 10956 10960 10963 10966 10969 10973 10976 10979 10984 10987 10990 10992 10994 10996 10999 11000 11001 11002 11004 11006 11008 11010 11012 11013 11014 11015 11017 11018 11019 11020 11022 11023 11024 11025 11026 11028 11029 11031 11032 11033 11034 11035 11035 11036 11037 11037
10738 10746 10755 10763 10769 10774 10780 10787 10796 10803 10807 10814 10822 10828 10834 10841 10847 10853 10860 10865 10865 10870 10879 10882 10885 10893 10900 10903 10906 10909 10914 10918 10922 10925 10928 10932 10935 10939 10943 10947 10950 10954 10957 10960 10964 10968 10971 10975 10979 10982 10984 10987 10989 10991 10994 10995 10997 10998 11000 11002 11004 11007 11008 11009 11011 11012 11014 11016 11017 11019 11020 11021 11022 11023 11025 11026 11027 11029 11030 11031 11032 11033 11034 11035 11036 11036
10730 10738 10747 10755 10761 10767 10774 10782 10790 10795 10799 10806 10814 10822 10829 10834 10840 10846 10851 10856 10858 10864 10871 10874 10881 10891 10894 10894 10898 10903 10907 10911 10915 10919 10922 10926 10930 10933 10936 10940 10944 10948 10951 10955 10959 10962 10965 10969 10973 10976 10979 10982 10984 10986 10988 10990 10993 10995 10996 10997 10999 11002 11004 11006 11007 11009 11011 11014 11015 11017 11018 11020 11021 11022 11023 11024 11025 11027 11028 11029 11030 11032 11033 11034 11035 11035
10723 10731 10740 10747 10754 10762 10768 10774 10781 10787 10792 10798 10806 10814 10819 10824 10831 10836 10842 10849 10853 10857 10863 10867 10876 10883 10883 10886 10892 10896 10900 10905 10909 10913 10916 10920 10924 10927 10930 10934 10938 10942 10946 10950 10953 10956 10960 10964 10967 10971 10974 10976 10978 10981 10983 10986 10988 10991 10992 10994 10995 10997 10999 11002 11004 11006 11009 11011 11013 11015 11016 11018 11019 11020 11021 11022 11024 11025 11026 11027 11029 11030 11031 11032 11033 11034
10717 10725 10733 10741 10747 10754 10759 10765 10773 10779 10784 10789 10797 10805 10811 10816 10824 10828 10835 10842 10845 10849 10855 10860 10868 10874 10875 10880 10885 10889 10894 10899 10902 10907 10910 10913 10917 10920 10924 10928 10931 10935 10940 10944 10948 10950 10954 10958 10961 10965 10968 10970 10973 10976 10978 10981 10984 10986 10988 10990 10991 10992 10995 10998 11000 11003 11005 11007 11010 11012 11014 11015 11016 11018 11019 11020 11022 11023 11025 11026 11027 11028 11030 11031 11032 11033
10711 10718 10726 10733 10739 10745 10751 10757 10763 10770 10777 10782 10789 10796 10803 10810 10816 10820 10826 10832 10835 10841 10847 10850 10860 10867 10870 10875 10878 10881 10887 10892 10896 10901 10904 10907 10911 10915 10918 10922 10926 10930 10934 10938 10942 10945 10948 10952 10955 10959 10962 10965 10968 10972 10974 10976 10979 10981 10983 10985 10986 10988 10990 10993 10996 10998 11000 11003 11007 11009 11011 11012 11014 11015 11016 11018 11020 11022 11023 11024 11025 11026 11028 11029 11030 11031
10704 10711 10718 10725 10730 10737 10743 10749 10756 10764 10771 10775 10780 10787 10794 10801 10806 10811 10817 10821 10826 10834 10836 10841 10854 10863 10864 10867 10871 10873 10878 10883 10889 10894 10898 10902 10905 10908 10913 10916 10920 10924 10928 10932 10936 10939 10943 10946 10949 10953 10956 10959 10963 10966 10968 10970 10973 10975 10978 10980 10982 10984 10986 10988 10991 10993 10996 10999 11002 11005 11007 11009 11011 11012 11014 11016 11018 11020 11021 11022 11023 11024 11026 11027 11028 11029
10694 10701 10709 10715 10722 10729 10736 10744 10751 10756 10761 10766 10771 10777 10784 10791 10796 10802 10807 10811 10819 10826 10827 10836 10850 10855 10854 10858 10863 10866 10870 10875 10881 10887 10892 10896 10899 10902 10907 10910 10914 10919 10922 10926 10930 10933 10937 10940 10944 10947 10951 10954 10957 10959 10962 10964 10967 10969 10971 10974 10977 10980 10982 10983 10985 10988 10991 10994 10997 11000 11002 11005 11007 11008 11011 11013 11015 11018 11019 11020 11021 11022 11023 11024 11026 11027
10684 10691 10698 10705 10712 10719 10727 10734 10739 10744 10750 10757 10763 10768 10774 10781 10786 10792 10796 10804 10812 10815 10818 10831 10842 10843 10845 10852 10855 10858 10862 10867 10873 10879 10885 10889 10893 10896 10899 10903 10908 10913 10916 10920 10923 10927 10931 10934 10938 10941 10945 10949 10952 10954 10956 10959 10961 10963 10966 10970 10973 10976 10978 10979 10981 10983 10985 10988 10991 10994 10997 10999 11002 11005 11007 11009 11012 11014 11016 11017 11018 11019 11020 11021 11023 11024
10674 10680 10687 10694 10701 10708 10715 10721 10727 10734 10740 10747 10752 10758 10764 10770 10776 10782 10788 10795 10801 10804 10813 10825 10831 10833 10838 10844 10847 10851 10855 10859 10864 10870 10876 10882 10886 10889 10893 10897 10901 10905 10910 10914 10917 10921 10925 10928 10932 10936 10939 10943 10946 10949 10951 10954 10956 10959 10962 10966 10969 10972 10974 10975 10977 10979 10981 10983 10985 10987 10990 10994 10997 11000 11002 11005 11007 11010 11012 11013 11015 11016 11017 11018 11020 11021
10666 10672 10678 10684 10690 10697 10704 10709 10716 10723 10729 10735 10742 10748 10753 10759 10766 10772 10778 10784 10790 10797 10807 10814 10818 10823 10829 10833 10838 10843 10847 10851 10855 10861 10867 10873 10878 10883 10886 10890 10894 10898 10903 10907 10911 10915 10919 10922 10926 10930 10934 10937 10941 10944 10946 10949 10952 10955 10958 10962 10964 10966 10968 10970 10972 10974 10977 10979 10980 10982 10984 10988 10991 10994 10997 11000 11002 11004 11007 11009 11011 11013 11014 11015 11016 11018
10657 10663 10669 10675 10682 10688 10694 10700 10705 10711 10718 10725 10732 10738 10743 10749 10754 10761 10767 10774 10781 10789 10797 10802 10807 10813 10819 10824 10830 10835 10839 10843 10847 10851 10857 10863 10869 10875 10879 10882 10886 10891 10895 10900 10905 10908 10912 10916 10920 10924 10928 10931 10935 10938 10941 10944 10947 10950 10953 10957 10960 10961 10963 10965 10967 10969 10972 10974 10976 10979 10981 10984 10986 10989 10992 10994 10996 10999 11002 11004 11006 11008 11010 11011 11013 11014
10649 10654 10660 10667 10673 10679 10685 10691 10696 10702 10708 10714 10720 10727 10733 10739 10744 10751 10757 10763 10770 10779 10785 10789 10795 10803 10811 10817 10821 10826 10831 10836 10839 10842 10848 10853 10859 10865 10870 10874 10878 10882 10887 10892 10897 10901 10905 10909 10914 10918 10922 10925 10929 10933 10936 10938 10942 10944 10947 10951 10954 10956 10958 10960 10962 10964 10966 10968 10972 10976 10979 10981 10983 10985 10987 10989 10991 10994 10996 10999 11001 11003 11005 11007 11008 11010
10640 10645 10651 10657 10663 10669 10675 10681 10687 10692 10696 10702 10711 10718 10723 10728 10734 10740 10746 10752 10760 10767 10772 10776 10786 10798 10804 10807 10811 10816 10822 10827 10831 10834 10837 10843 10849 10855 10860 10866 10870 10874 10878 10883 10888 10894 10898 10902 10907 10911 10915 10919 10923 10927 10930 10933 10936 10938 10942 10945 10947 10950 10952 10954 10957 10959 10961 10963 10967 10970 10974 10977 10980 10982 10984 10985 10987 10989 10992 10995 10997 10998 11000 11002 11004 11006
10631 10636 10641 10647 10653 10659 10665 10671 10677 10680 10685 10694 10703 10707 10711 10718 10723 10729 10735 10742 10748 10754 10760 10768 10780 10788 10790 10794 10801 10808 10813 10818 10822 10826 10829 10832 10838 10844 10850 10856 10861 10866 10870 10874 10880 10885 10890 10894 10899 10903 10908 10912 10916 10920 10924 10927 10930 10933 10936 10939 10941 10944 10946 10949 10952 10954 10957 10960 10963 10965 10969 10973 10976 10978 10980 10982 10984 10986 10989 10991 10992 10994 10996 10998 11000 11002
10622 10627 10632 10638 10644 10649 10655 10661 10665 10669 10677 10686 10692 10695 10701 10707 10712 10718 10726 10731 10736 10743 10750 10758 10768 10773 10776 10784 10793 10797 10802 10808 10813 10817 10821 10823 10827 10834 10840 10846 10852 10857 10861 10866 10871 10876 10881 10886 10891 10895 10900 10904 10909 10913 10917 10920 10924 10927 10930 10933 10936 10939 10941 10944 10946 10949 10952 10955 10958 10961 10964 10967 10970 10973 10976 10979 10981 10983 10985 10987 10989 10990 10992 10995 10996 10998
10614 10618 10623 10628 10634 10639 10645 10649 10654 10660 10668 10674 10679 10685 10691 10696 10701 10708 10714 10719 10726 10732 10738 10746 10755 10761 10765 10772 10780 10786 10792 10798 10802 10807 10812 10815 10818 10823 10829 10836 10842 10847 10852 10857 10861 10867 10872 10877 10882 10887 10892 10896 10901 10905 10909 10913 10917 10921 10924 10927 10930 10933 10936 10939 10941 10943 10946 10950 10953 10957 10960 10963 10966 10968 10972 10975 10978 10980 10982 10983 10985 10987 10989 10991 10993 10994
10605 10609 10614 10619 10624 10629 10634 10638 10644 10651 10656 10661 10668 10674 10680 10685 10691 10696 10701 10709 10716 10720 10726 10733 10741 10748 10751 10758 10767 10774 10779 10786 10792 10797 10804 10809 10811 10813 10818 10825 10831 10837 10843 10848 10852 10857 10863 10868 10873 10878 10883 10888 10892 10897 10901 10905 10909 10913 10917 10921 10924 10927 10930 10933 10935 10938 10940 10944 10948 10952 10956 10959 10962 10965 10969 10972 10975 10978 10979 10981 10982 10984 10986 10988 10990 10991
10597 10601 10605 10609 10614 10618 10622 10627 10633 10638 10644 10650 10657 10662 10668 10673 10678 10683 10689 10697 10703 10707 10713 10720 10727 10734 10739 10746 10753 10759 10767 10775 10780 10786 10795 10801 10804 10805 10808 10813 10820 10827 10832 10838 10843 10848 10853 10858 10864 10869 10875 10880 10884 10888 10892 10896 10901 10905 10910 10914 10918 10921 10924 10927 10929 10932 10934 10938 10942 10946 10950 10954 10958 10963 10966 10970 10973 10976 10978 10980 10982 10983 10985 10986 10988 10990
10589 10592 10596 10600 10604 10608 10612 10617 10622 10627 10633 10640 10644 10650 10655 10660 10665 10670 10676 10684 10690 10694 10701 10707 10713 10721 10727 10734 10741 10746 10754 10761 10766 10776 10788 10791 10792 10796 10799 10802 10808 10815 10821 10827 10833 10838 10843 10848 10854 10860 10865 10871 10876 10880 10884 10888 10893 10897 10901 10906 10910 10914 10917 10920 10923 10925 10928 10932 10936 10941 10945 10950 10955 10960 10964 10968 10971 10974 10978 10980 10982 10983 10985 10986 10987 10989
10580 10583 10587 10591 10595 10599 10603 10607 10611 10616 10622 10627 10631 10637 10642 10647 10653 10657 10662 10672 10678 10680 10686 10694 10701 10708 10715 10722 10728 10733 10740 10747 10754 10766 10777 10777 10778 10786 10791 10792 10796 10801 10808 10816 10822 10827 10832 10837 10843 10850 10856 10861 10866 10871 10876 10880 10884 10889 10893 10898 10902 10907 10911 10914 10916 10919 10923 10927 10931 10936 10940 10946 10951 10955 10959 10964 10969 10975 10979 10981 10981 10982 10983 10984 10986 10988
10571 10574 10578 10582 10585 10589 10593 10597 10601 10605 10611 10615 10619 10625 10629 10634 10639 10643 10651 10661 10664 10665 10673 10682 10688 10694 10701 10708 10714 10719 10726 10734 10742 10752 10762 10764 10766 10774 10781 10783 10786 10789 10794 10802 10809 10815 10821 10826 10832 10838 10845 10851 10857 10862 10867 10872 10876 10881 10885 10890 10894 10899 10903 10906 10909 10913 10917 10921 10925 10930 10935 10940 10944 10947 10951 10958 10964 10970 10975 10977 10979 10981 10983 10983 10984 10986
10561 10565 10568 10572 10575 10579 10583 10586 10589 10593 10599 10604 10608 10613 10617 10621 10627 10633 10640 10647 10650 10653 10662 10669 10674 10680 10687 10692 10699 10705 10712 10720 10728 10737 10745 10750 10755 10761 10768 10773 10777 10779 10782 10789 10796 10803 10810 10815 10821 10826 10833 10840 10846 10852 10858 10862 10867 10872 10877 10881 10886 10891 10895 10899 10902 10907 10912 10915 10918 10923 10928 10932 10935 10938 10943 10949 10953 10956 10959 10961 10965 10971 10976 10979 10982 10985
10552 10555 10558 10561 10565 10568 10571 10575 10578 10582 10588 10593 10596 10600 10604 10609 10615 10621 10625 10631 10637 10643 10648 10653 10660 10667 10672 10677 10684 10691 10698 10706 10713 10721 10730 10736 10741 10747 10754 10761 10766 10770 10773 10776 10782 10790 10798 10804 10809 10814 10821 10828 10834 10840 10847 10852 10857 10862 10867 10872 10877 10882 10887 10891 10895 10901 10905 10908 10911 10917 10922 10925 10928 10931 10936 10940 10942 10945 10948 10950 10953 10956 10960 10965 10972 10980
10543 10546 10548 10551 10554 10557 10560 10564 10567 10571 10575 10581 10585 10588 10592 10597 10602 10606 10610 10617 10624 10629 10633 10639 10646 10652 10657 10663 10669 10675 10682 10690 10698 10706 10714 10720 10725 10732 10740 10747 10753 10759 10763 10766 10770 10776 10784 10792 10798 10803 10809 10816 10822 10829 10835 10841 10847 10852 10857 10862 10868 10873 10878 10882 10887 10893 10898 10900 10904 10910 10915 10919 10922 10925 10928 10932 10935 10938 10941 10944 10948 10951 10952 10953 10958 10967
10534 10536 10539 10541 10544 10546 10550 10553 10556 10559 10563 10569 10574 10577 10580 10584 10588 10593 10598 10604 10610 10615 10620 10625 10631 10637 10643 10649 10654 10660 10667 10674 10682 10690 10697 10704 10711 10717 10725 10733 10740 10746 10752 10757 10761 10765 10770 10778 10786 10792 10797 10804 10811 10817 10823 10829 10835 10841 10846 10852 10857 10863 10868 10874 10879 10885 10889 10893 10897 10901 10907 10912 10916 10919 10922 10926 10929 10931 10933 10937 10942 10946 10948 10949 10951 10957
10527 10528 10530 10532 10534 10536 10539 10542 10545 10548 10553 10558 10562 10565 10569 10572 10576 10581 10586 10591 10597 10602 10607 10611 10616 10622 10628 10633 10639 10645 10651 10657 10665 10673 10680 10688 10695 10702 10709 10717 10725 10732 10739 10744 10750 10754 10759 10765 10773 10780 10786 10792 10798 10805 10811 10817 10824 10829 10834 10840 10846 10853 10858 10864 10870 10875 10881 10886 10890 10894 10899 10904 10909 10912 10915 10919 10923 10925 10927 10931 10934 10938 10942 10947 10949 10951
10520 10521 10522 10523 10524 10527 10529 10531 10535 10538 10541 10545 10550 10554 10558 10561 10565 10569 10574 10579 10585 10589 10594 10598 10603 10608 10613 10619 10624 10629 10635 10642 10649 10656 10664 10672 10680 10687 10694 10701 10708 10716 10724 10730 10736 10743 10749 10754 10760 10766 10773 10780 10786 10793 10800 10806 10813 10818 10823 10828 10835 10841 10848 10854 10860 10866 10872 10877 10882 10886 10891 10895 10900 10904 10906 10910 10915 10919 10921 10925 10927 10930 10936 10941 10944 10947
10512 10514 10515 10515 10516 10519 10521 10523 10526 10528 10530 10534 10538 10541 10544 10548 10552 10556 10561 10566 10572 10576 10580 10584 10589 10594 10598 10603 10609 10615 10620 10626 10633 10641 10649 10657 10665 10672 10679 10686 10693 10700 10708 10715 10722 10729 10737 10743 10748 10752 10759 10767 10774 10781 10788 10795 10801 10807 10813 10818 10823 10830 10836 10843 10850 10856 10862 10868 10873 10878 10882 10885 10890 10895 10898 10902 10907 10911 10914 10919 10921 10924 10929 10933 10936 10940
10506 10508 10509 10510 10512 10513 10513 10514 10516 10519 10521 10524 10526 10528 10532 10537 10541 10544 10548 10553 10558 10562 10567 10571 10575 10579 10583 10587 10593 10600 10605 10611 10618 10626 10633 10640 10648 10656 10663 10670 10677 10684 10691 10698 10707 10715 10723 10730 10735 10740 10746 10753 10760 10768 10775 10783 10789 10795 10801 10807 10812 10818 10825 10832 10838 10844 10851 10857 10863 10868 10873 10876 10881 10887 10891 10894 10899 10903 10907 10911 10915 10918 10921 10924 10927 10931
10500 10501 10502 10503 10505 10505 10504 10504 10508 10512 10513 10513 10515 10517 10522 10527 10531 10533 10536 10541 10545 10549 10554 10558 10562 10565 10569 10573 10579 10584 10590 10596 10602 10608 10616 10623 10630 10638 10646 10653 10660 10667 10674 10682 10689 10698 10707 10715 10722 10727 10733 10738 10746 10754 10762 10769 10776 10783 10790 10795 10801 10807 10813 10820 10827 10833 10839 10846 10853 10858 10864 10868 10872 10877 10882 10887 10891 10895 10899 10904 10908 10912 10914 10916 10920 10924
10492 10493 10494 10495 10495 10494 10494 10495 10499 10502 10501 10501 10503 10505 10508 10512 10516 10519 10523 10528 10532 10537 10541 10545 10549 10552 10556 10561 10565 10570 10576 10581 10586 10592 10599 10605 10612 10619 10628 10635 10642 10649 10657 10665 10672 10680 10689 10698 10706 10713 10719 10724 10731 10739 10748 10755 10762 10769 10777 10783 10789 10795 10802 10808 10816 10822 10828 10835 10841 10848 10853 10858 10863 10867 10873 10878 10882 10886 10890 10895 10900 10904 10907 10909 10912 10917